[[{"header":{"parameterUnit":"m.s-1","parameterCategory":1,"la1":30.2992,"la2":30.254,"lo1":-89.0895,"lo2":-89.0443,"dy":0.0025,"dx":0.0025,"nx":19,"ny":19,"refTime":"2026-03-14T03:00:00:Z","depth":0,"parameterNumber":2,"parameterNumberName":"U-component_of_WINDS"},"data":[0,0,0,-2.2342,-2.2345,-2.2546,-2.2547,-2.2768,-2.2769,0,0,0,0,0,0,0,0,0,0,0,-2.2261,-2.2262,-2.2341,-2.2346,-2.2546,-2.2547,-2.2767,-2.2769,0,0,0,0,0,0,0,0,0,0,0,-2.2261,-2.2261,-2.2262,-2.2347,-2.2546,-2.2547,-2.2767,-2.2628,0,0,0,0,0,0,0,0,0,0,-2.244,-2.2344,-2.2261,-2.2262,-2.2348,-2.2545,-2.2547,-2.2622,-2.2637,-2.2662,0,-2.2678,0,-2.2727,-2.2782,-2.2782,0,0,0,-2.2362,-2.2332,-2.2405,-2.2263,-2.2349,-2.2545,-2.246,-2.2631,-2.2648,-2.2681,-2.2681,-2.269,-2.273,-2.2783,-2.2784,-2.2871,-2.2871,0,0,-2.2351,-2.2285,-2.2394,-2.2415,-2.2382,-2.2454,-2.2466,-2.2642,-2.2638,-2.2682,-2.2696,-2.2734,-2.2784,-2.2786,-2.2872,-2.2871,0,0,0,-2.2308,-2.2277,-2.2347,-2.2405,-2.2444,-2.2459,-2.2473,-2.263,-2.2658,-2.2699,-2.2737,-2.2785,-2.2788,-2.2872,-2.2871,-2.2788,0,0,0,-2.2302,-2.2252,-2.2341,-2.2303,-2.244,-2.2539,-2.2457,-2.2646,-2.2668,-2.2735,-2.2785,-2.2789,-2.2873,-2.2872,-2.2792,-2.2759,0,0,0,-2.2255,-2.2247,-2.2269,-2.2299,-2.2383,-2.2538,-2.2577,-2.2652,-2.269,-2.2782,-2.279,-2.2873,-2.2872,-2.2795,-2.2764,-2.2761,0,0,0,-2.2186,-2.2193,-2.2266,-2.2289,-2.2381,-2.2486,-2.2577,-2.2659,-2.2728,-2.2786,-2.2872,-2.2871,-2.2796,-2.2767,-2.2764,-2.2744,-2.2731,0,0,-2.2158,-2.2187,-2.2206,-2.2277,-2.2352,-2.246,-2.2524,-2.265,-2.272,-2.2817,-2.282,-2.2791,-2.2765,-2.2762,-2.2684,-2.2672,0,0,0,-2.2175,-2.2187,-2.2221,-2.2284,-2.2381,-2.246,-2.2584,-2.2631,-2.2717,-2.2756,-2.2793,-2.2779,-2.278,-2.2774,-2.2764,-2.2768,-2.2867,-2.2867,-2.2867,-2.2039,-2.2128,-2.2164,-2.2276,-2.2336,-2.2463,-2.252,-2.2605,-2.2677,-2.2684,-2.2712,-2.2654,-2.2644,-2.2638,-2.2641,-2.2712,-2.2712,-2.2712,-2.2712,-2.2004,-2.2034,-2.213,-2.2199,-2.2293,-2.2352,-2.2476,-2.2525,-2.2593,-2.2641,-2.2646,-2.2687,-2.2623,-2.263,-2.2706,-2.2707,-2.2708,-2.2708,-2.2709,-2.1922,-2.1952,-2.2009,-2.2109,-2.2176,-2.2291,-2.2352,-2.2436,-2.2516,-2.2521,-2.2559,-2.256,-2.257,-2.2534,-2.2534,-2.2533,-2.2533,-2.2533,-2.2533,-2.1813,-2.1881,-2.1922,-2.2025,-2.2076,-2.2154,-2.2283,-2.2336,-2.2416,-2.2472,-2.2473,-2.2542,-2.2601,-2.2612,-2.253,-2.2531,-2.2531,-2.2531,-2.2532,-2.1739,-2.177,-2.1831,-2.1882,-2.2011,-2.2071,-2.2179,-2.2279,-2.2335,-2.2362,-2.2433,-2.2463,-2.2499,-2.2507,-2.2516,-2.2415,-2.2415,-2.2415,-2.2415,-2.1667,-2.1694,-2.1776,-2.1852,-2.1937,-2.204,-2.2107,-2.2208,-2.2317,-2.2357,-2.2386,-2.2406,-2.2411,-2.2444,-2.2454,-2.2464,-2.2351,-2.2351,-2.2351,-2.1625,-2.1664,-2.1704,-2.1811,-2.1918,-2.2007,-2.2072,-2.2156,-2.2287,-2.235,-2.239,-2.2393,-2.2428,-2.2435,-2.2495,-2.2508,-2.2528,0,0]},{"header":{"parameterUnit":"m.s-1","parameterCategory":1,"la1":30.2992,"la2":30.254,"lo1":-89.0895,"lo2":-89.0443,"dy":0.0025,"dx":0.0025,"nx":19,"ny":19,"refTime":"2026-03-14T03:00:00:Z","depth":0,"parameterNumber":3,"parameterNumberName":"V-component_of_WINDS"},"data":[0,0,0,6.3823,6.3825,6.3908,6.3908,6.4039,6.404,0,0,0,0,0,0,0,0,0,0,0,6.3817,6.3819,6.3823,6.3826,6.3908,6.3908,6.4038,6.404,0,0,0,0,0,0,0,0,0,0,0,6.3816,6.3818,6.382,6.3826,6.3908,6.3908,6.4038,6.3966,0,0,0,0,0,0,0,0,0,0,6.3882,6.3895,6.3818,6.382,6.3827,6.3908,6.3908,6.3962,6.3971,6.4013,0,6.4059,0,6.4052,6.4051,6.4051,0,0,0,6.3811,6.3888,6.3894,6.3821,6.3828,6.3908,6.3867,6.3967,6.3976,6.4025,6.406,6.4064,6.4054,6.4052,6.4053,6.435,6.4352,0,0,6.3807,6.3841,6.3887,6.3901,6.3893,6.3864,6.3869,6.3972,6.4012,6.4061,6.4067,6.4056,6.4053,6.4054,6.4348,6.4351,0,0,0,6.3803,6.3839,6.3841,6.3896,6.391,6.3867,6.3873,6.4007,6.4005,6.4068,6.4058,6.4054,6.4056,6.4346,6.4349,6.4484,0,0,0,6.38,6.3837,6.384,6.3862,6.3908,6.396,6.3907,6.3998,6.4009,6.4057,6.4054,6.4057,6.4344,6.4348,6.4475,6.4541,0,0,0,6.3805,6.3837,6.3856,6.3864,6.3901,6.3958,6.3961,6.4,6.4004,6.4052,6.4058,6.4342,6.4347,6.4468,6.4528,6.4628,0,0,0,6.3821,6.3975,6.3858,6.4026,6.3901,6.4042,6.396,6.4063,6.4121,6.4055,6.4344,6.4349,6.4465,6.4521,6.462,6.4717,6.4761,0,0,6.4034,6.4002,6.4098,6.3996,6.4167,6.4026,6.4216,6.4235,6.4208,6.4304,6.431,6.4478,6.4528,6.4626,6.5,6.5036,0,0,0,6.4177,6.4246,6.4284,6.4341,6.436,6.4381,6.4368,6.4374,6.4454,6.4265,6.4541,6.4569,6.4626,6.467,6.47,6.4745,6.4372,6.4371,6.4371,6.4528,6.4485,6.4639,6.4605,6.4662,6.4646,6.4686,6.4692,6.4632,6.4698,6.4725,6.4958,6.5011,6.5034,6.5081,6.4775,6.4775,6.4776,6.4776,6.4834,6.4924,6.484,6.496,6.4912,6.5011,6.5001,6.4955,6.5038,6.4934,6.4981,6.4869,6.5074,6.5113,6.4786,6.4784,6.4783,6.4782,6.4781,6.5057,6.5093,6.5099,6.5175,6.5238,6.5198,6.5282,6.5236,6.5193,6.524,6.5262,6.526,6.5249,6.5254,6.5255,6.5256,6.5257,6.5257,6.5258,6.5286,6.5288,6.5365,6.5398,6.5427,6.5459,6.5444,6.5471,6.5488,6.5448,6.5447,6.5379,6.5103,6.5033,6.527,6.5268,6.5266,6.5265,6.5264,6.5609,6.5528,6.5647,6.5677,6.5709,6.5773,6.5714,6.5772,6.5787,6.5829,6.5751,6.5555,6.5518,6.5494,6.5435,6.5762,6.5762,6.5762,6.5762,6.5795,6.5772,6.5882,6.5932,6.5975,6.5932,6.6065,6.6054,6.603,6.6036,6.5982,6.5902,6.5879,6.5855,6.5823,6.5767,6.6171,6.6172,6.6172,6.599,6.5969,6.6092,6.6068,6.6089,6.6108,6.6231,6.6289,6.6245,6.6188,6.6039,6.6022,6.5891,6.5852,6.579,6.5741,6.5638,0,0]}]]